[[{"header":{"parameterUnit":"m.s-1","parameterCategory":1,"la1":30.2991,"la2":30.254,"lo1":-89.0895,"lo2":-89.0444,"dy":0.0017,"dx":0.0017,"nx":28,"ny":28,"refTime":"2024-06-05T03:00:00:Z","depth":0,"parameterNumber":2,"parameterNumberName":"U-component_of_WINDS"},"data":[0,0,0,0,0,0,0,0,0,0,0,0,0,0,0,0,0,0,0,0,0,0,0,0,0,0,0,0,0,0,0,0,0,0,0,0,0,0,0,0,0,0,0,0,0,0,0,0,0,0,0,0,0,0,0,0,0,0,-2.4675,-2.4676,0,-2.4812,-2.4814,-2.4816,-2.4861,-2.486,-2.486,-2.4859,-2.4998,-2.5002,-2.5006,0,0,0,0,0,0,0,0,0,0,0,0,0,-2.4451,-2.4455,-2.4675,-2.4677,-2.4678,-2.4812,-2.4814,-2.4816,-2.4861,-2.486,-2.4859,-2.4859,-2.4996,-2.5001,-2.5006,0,0,0,0,0,0,0,0,0,0,0,0,0,-2.4564,-2.4456,-2.4675,-2.4717,-2.4722,-2.4812,-2.4814,-2.4816,-2.4861,-2.486,-2.4859,-2.4858,-2.4994,-2.5001,-2.5007,-2.5064,0,0,-2.5026,-2.5029,0,0,0,0,0,0,0,0,-2.4558,-2.4572,-2.4709,-2.4714,-2.472,-2.4819,-2.4786,-2.4899,-2.4861,-2.4808,-2.4859,-2.4858,-2.4939,-2.4949,-2.4977,-2.507,-2.5076,-2.5027,-2.5031,-2.5033,-2.5035,0,0,0,0,0,0,0,-2.455,-2.4567,-2.4729,-2.4711,-2.4718,-2.4729,-2.4744,-2.4808,-2.4877,-2.4813,-2.4816,-2.4832,-2.4941,-2.4971,-2.4981,-2.5078,-2.5027,-2.5032,-2.5036,-2.5039,-2.5227,-2.5228,0,0,0,0,0,0,-2.4535,-2.456,-2.4725,-2.4733,-2.4635,-2.4734,-2.4751,-2.4788,-2.4876,-2.4889,-2.4833,-2.4834,-2.496,-2.4973,-2.4986,-2.5059,-2.5033,-2.5039,-2.5043,-2.5226,-2.5227,-2.5229,0,0,0,0,0,0,-2.453,-2.4549,-2.4719,-2.4648,-2.467,-2.4739,-2.478,-2.4791,-2.4821,-2.4891,-2.4904,-2.485,-2.496,-2.4977,-2.5045,-2.5064,-2.5042,-2.5048,-2.5224,-2.5226,-2.5228,-2.5205,0,0,0,0,0,0,-2.4523,-2.4547,-2.4569,-2.4648,-2.4674,-2.4776,-2.4781,-2.4794,-2.4832,-2.4834,-2.4911,-2.4923,-2.4961,-2.5035,-2.5051,-2.5073,-2.5053,-2.5223,-2.5225,-2.5227,-2.5204,-2.5206,-2.5207,0,0,0,0,0,-2.4515,-2.4557,-2.457,-2.459,-2.4703,-2.4777,-2.4792,-2.4835,-2.4833,-2.4856,-2.4902,-2.492,-2.506,-2.5041,-2.506,-2.5084,-2.5222,-2.5225,-2.5227,-2.5204,-2.5206,-2.5207,0,0,0,0,0,0,-2.4478,-2.4568,-2.4584,-2.4652,-2.4707,-2.4784,-2.4815,-2.4836,-2.4892,-2.4892,-2.4943,-2.496,-2.5024,-2.5061,-2.5039,-2.5145,-2.5142,-2.5148,-2.5118,-2.512,-2.5121,-2.5111,-2.5058,0,0,0,0,0,-2.4478,-2.453,-2.4606,-2.4659,-2.4686,-2.4745,-2.4779,-2.4808,-2.4867,-2.489,-2.494,-2.4996,-2.5053,-2.5089,-2.5144,-2.5211,-2.5228,-2.5236,-2.5238,-2.5238,-2.5243,-2.5282,-2.5286,-2.5237,-2.5237,-2.5237,0,0,-2.4477,-2.4533,-2.4563,-2.4653,-2.4699,-2.4752,-2.4764,-2.482,-2.486,-2.4898,-2.4965,-2.5005,-2.507,-2.5138,-2.517,-2.517,-2.5261,-2.5242,-2.5242,-2.5246,-2.5285,-2.5289,-2.5294,-2.5239,-2.5239,-2.5238,0,0,-2.4504,-2.4552,-2.4601,-2.4647,-2.4717,-2.4757,-2.4769,-2.4844,-2.4872,-2.4941,-2.4971,-2.502,-2.5116,-2.5162,-2.5197,-2.5244,-2.5263,-2.5261,-2.5268,-2.5305,-2.5309,-2.5312,-2.5329,-2.5334,-2.5266,-2.5266,-2.5266,0,-2.4495,-2.4576,-2.4624,-2.4679,-2.4718,-2.4756,-2.4807,-2.4849,-2.4933,-2.4959,-2.4959,-2.5082,-2.5129,-2.5208,-2.5219,-2.5247,-2.5263,-2.5252,-2.5304,-2.5309,-2.5313,-2.5329,-2.5335,-2.5265,-2.5265,-2.5265,-2.5265,0,-2.4562,-2.4618,-2.465,-2.4731,-2.4774,-2.4826,-2.4882,-2.492,-2.4946,-2.4986,-2.5056,-2.5114,-2.5183,-2.5204,-2.523,-2.5287,-2.5286,-2.5294,-2.5292,-2.5316,-2.5332,-2.5339,-2.5264,-2.5264,-2.5264,-2.5264,0,0,-2.4567,-2.4675,-2.4686,-2.4724,-2.4805,-2.4849,-2.4904,-2.4972,-2.5004,-2.5061,-2.5108,-2.519,-2.5199,-2.524,-2.5271,-2.5304,-2.5338,-2.5309,-2.5311,-2.5312,-2.5406,-2.5398,-2.5404,-2.5352,-2.5353,-2.5354,-2.54,0,-2.4604,-2.4703,-2.4748,-2.4828,-2.4881,-2.4919,-2.4967,-2.5022,-2.5061,-2.5112,-2.5156,-2.5213,-2.522,-2.5245,-2.528,-2.5326,-2.5357,-2.5324,-2.5396,-2.5398,-2.5377,-2.5413,-2.5405,-2.5445,-2.5407,-2.5408,-2.5409,0,-2.4659,-2.4718,-2.4802,-2.4878,-2.4902,-2.4944,-2.5012,-2.506,-2.5123,-2.515,-2.5196,-2.5227,-2.5286,-2.5282,-2.5364,-2.534,-2.5373,-2.5401,-2.5403,-2.5411,-2.5404,-2.5421,-2.5459,-2.5465,-2.5419,-2.5418,-2.5418,0,-2.4654,-2.4754,-2.4818,-2.4849,-2.4939,-2.4968,-2.5007,-2.507,-2.5109,-2.5167,-2.5193,-2.5258,-2.5293,-2.5342,-2.539,-2.5382,-2.5468,-2.5467,-2.5491,-2.549,-2.5506,-2.5505,-2.5549,-2.5529,-2.5528,-2.5528,-2.5528,0,-2.469,-2.474,-2.4817,-2.4856,-2.4914,-2.4966,-2.5022,-2.5064,-2.512,-2.5168,-2.5205,-2.5249,-2.531,-2.5362,-2.54,-2.5462,-2.5478,-2.5501,-2.551,-2.5497,-2.5494,-2.5518,-2.5517,-2.553,-2.553,-2.5529,-2.5529,0,-2.4694,-2.4747,-2.4819,-2.4899,-2.4921,-2.496,-2.5028,-2.5068,-2.511,-2.5171,-2.5188,-2.5254,-2.5317,-2.537,-2.5453,-2.5478,-2.5544,-2.5555,-2.5522,-2.5527,-2.5548,-2.5546,-2.561,-2.5621,-2.5593,-2.5593,-2.5593,0,-2.4713,-2.4752,-2.4837,-2.4872,-2.4911,-2.4967,-2.5007,-2.5061,-2.5101,-2.5178,-2.5208,-2.5275,-2.5331,-2.543,-2.5485,-2.5549,-2.5562,-2.558,-2.5572,-2.5558,-2.5562,-2.5559,-2.5563,-2.558,-2.558,-2.558,-2.558,0,-2.4741,-2.4766,-2.4822,-2.4889,-2.4936,-2.4991,-2.5046,-2.5073,-2.5137,-2.518,-2.5246,-2.529,-2.5376,-2.5441,-2.5512,-2.5552,-2.5577,-2.5583,-2.5592,-2.5579,-2.5558,-2.5569,-2.5524,-2.5581,-2.5581,-2.5581,-2.5581,-2.5581,-2.4753,-2.479,-2.4856,-2.4918,-2.4966,-2.5018,-2.5059,-2.5107,-2.5163,-2.5238,-2.5266,-2.5334,-2.5398,-2.5495,-2.5535,-2.5589,-2.5592,-2.5605,-2.5608,-2.561,-2.5609,-2.555,-2.5602,-2.5602,-2.5602,-2.5602,-2.5602,0,-2.4783,-2.4827,-2.4884,-2.4961,-2.5011,-2.5031,-2.5095,-2.5134,-2.5193,-2.5251,-2.5306,-2.5382,-2.5447,-2.5508,-2.5575,-2.5606,-2.562,-2.5622,-2.562,-2.5629,-2.5602,-2.5587,-2.561,-2.561,-2.561,-2.561,-2.561,-2.561,-2.4804,-2.4869,-2.4902,-2.4991,-2.5036,-2.5102,-2.5137,-2.5185,-2.5231,-2.5315,-2.5369,-2.5409,-2.5468,-2.5541,-2.5601,-2.5617,-2.564,-2.5639,-2.5659,-2.5632,-2.5631,-2.5629,-2.5616,-2.5644,-2.5644,-2.5681,-2.5682,-2.5682]},{"header":{"parameterUnit":"m.s-1","parameterCategory":1,"la1":30.2991,"la2":30.254,"lo1":-89.0895,"lo2":-89.0444,"dy":0.0017,"dx":0.0017,"nx":28,"ny":28,"refTime":"2024-06-05T03:00:00:Z","depth":0,"parameterNumber":3,"parameterNumberName":"V-component_of_WINDS"},"data":[0,0,0,0,0,0,0,0,0,0,0,0,0,0,0,0,0,0,0,0,0,0,0,0,0,0,0,0,0,0,0,0,0,0,0,0,0,0,0,0,0,0,0,0,0,0,0,0,0,0,0,0,0,0,0,0,0,0,5.185,5.1851,0,5.194,5.1941,5.1942,5.1951,5.195,5.1949,5.1948,5.2036,5.2039,5.2042,0,0,0,0,0,0,0,0,0,0,0,0,0,5.1684,5.1687,5.185,5.1852,5.1853,5.194,5.1942,5.1943,5.1951,5.195,5.1948,5.1947,5.2035,5.2038,5.2042,0,0,0,0,0,0,0,0,0,0,0,0,0,5.1763,5.1688,5.185,5.1867,5.187,5.194,5.1942,5.1943,5.1951,5.195,5.1948,5.1947,5.2033,5.2038,5.2043,5.2101,0,0,5.2057,5.206,0,0,0,0,0,0,0,0,5.1758,5.1769,5.1864,5.1866,5.1869,5.1933,5.1915,5.1996,5.1951,5.192,5.1948,5.1946,5.2002,5.201,5.2029,5.2105,5.2109,5.2058,5.2061,5.2063,5.2064,0,0,0,0,0,0,0,5.1753,5.1765,5.1886,5.1865,5.1868,5.187,5.188,5.193,5.1968,5.1923,5.1923,5.1934,5.2003,5.2025,5.2031,5.211,5.2058,5.2062,5.2065,5.2067,5.224,5.2242,0,0,0,0,0,0,5.1745,5.176,5.1883,5.1889,5.1809,5.1874,5.1885,5.1914,5.1967,5.1974,5.1935,5.1934,5.2017,5.2026,5.2035,5.2108,5.2063,5.2067,5.207,5.2239,5.2241,5.2243,0,0,0,0,0,0,5.1741,5.1755,5.1879,5.1825,5.1841,5.1878,5.1911,5.1916,5.1938,5.1977,5.1983,5.195,5.2016,5.2028,5.2085,5.2111,5.207,5.2074,5.2237,5.2239,5.2242,5.2254,0,0,0,0,0,0,5.1736,5.1754,5.1777,5.1825,5.1844,5.1929,5.1912,5.1919,5.1946,5.1946,5.1993,5.1999,5.2016,5.2078,5.209,5.2117,5.2078,5.2234,5.2238,5.2241,5.2251,5.2257,5.2261,0,0,0,0,0,5.173,5.1775,5.1778,5.1793,5.1873,5.193,5.1941,5.1961,5.1948,5.1972,5.1997,5.1998,5.2106,5.2084,5.2097,5.2126,5.2233,5.2237,5.2241,5.2249,5.2255,5.2261,0,0,0,0,0,0,5.1726,5.1782,5.1785,5.1847,5.1885,5.1932,5.1961,5.1967,5.2007,5.2004,5.2026,5.2037,5.2094,5.2115,5.2089,5.2187,5.2168,5.2175,5.217,5.2176,5.2181,5.2175,5.2082,0,0,0,0,0,5.1733,5.1776,5.1822,5.1872,5.1891,5.1923,5.1949,5.1961,5.2,5.2015,5.2045,5.2081,5.2124,5.2151,5.2193,5.2255,5.2266,5.2281,5.2286,5.229,5.2296,5.2332,5.234,5.2255,5.2255,5.2255,0,0,5.1746,5.1782,5.1807,5.1872,5.1902,5.1946,5.1936,5.1982,5.2015,5.2021,5.2078,5.2102,5.2144,5.2205,5.2233,5.2225,5.2322,5.2295,5.2298,5.2301,5.2337,5.2345,5.2352,5.2258,5.2257,5.2257,0,0,5.1794,5.1825,5.1871,5.1903,5.1949,5.1971,5.1982,5.203,5.2046,5.2104,5.2111,5.215,5.2222,5.2253,5.2278,5.2341,5.2343,5.2354,5.2379,5.2414,5.2421,5.2427,5.2451,5.2459,5.2359,5.2359,5.2359,0,5.1804,5.1871,5.1894,5.1941,5.197,5.1981,5.2029,5.2057,5.2114,5.2134,5.2124,5.2218,5.2247,5.2316,5.2332,5.2351,5.2365,5.2348,5.2418,5.2425,5.2431,5.2453,5.2462,5.236,5.236,5.236,5.236,0,5.1883,5.1929,5.1961,5.2019,5.2052,5.2098,5.2128,5.2158,5.2169,5.2191,5.2251,5.2287,5.2337,5.2354,5.2364,5.2426,5.2419,5.2414,5.2396,5.2439,5.2461,5.247,5.2362,5.2361,5.2361,5.2361,0,0,5.1928,5.2,5.2012,5.2039,5.2093,5.2129,5.2177,5.2228,5.2254,5.2294,5.2335,5.2398,5.2394,5.2423,5.2436,5.2467,5.2517,5.2458,5.246,5.2469,5.2589,5.2593,5.2603,5.2519,5.2521,5.2522,5.2586,0,5.1982,5.207,5.2093,5.2167,5.2211,5.2223,5.2265,5.2303,5.2326,5.2367,5.2392,5.2437,5.2428,5.2445,5.2477,5.2504,5.2541,5.25,5.2557,5.2559,5.2547,5.2614,5.2618,5.2676,5.2594,5.2596,5.2597,0,5.2056,5.2101,5.218,5.2231,5.225,5.2287,5.2337,5.2376,5.2419,5.2434,5.2468,5.2479,5.253,5.251,5.2581,5.2552,5.2577,5.2595,5.2597,5.2604,5.258,5.2622,5.2695,5.2704,5.261,5.2609,5.2608,0,5.2083,5.2162,5.222,5.2243,5.2304,5.233,5.2356,5.2398,5.2428,5.2472,5.2492,5.2539,5.2566,5.2603,5.2627,5.261,5.2696,5.2678,5.271,5.271,5.2727,5.2726,5.2806,5.2743,5.2743,5.2742,5.2742,0,5.2142,5.219,5.2234,5.2269,5.2324,5.2351,5.2404,5.243,5.2468,5.2509,5.2522,5.256,5.259,5.2632,5.2651,5.2708,5.2719,5.2733,5.2738,5.2732,5.2731,5.2749,5.2746,5.2745,5.2744,5.2744,5.2743,0,5.218,5.2212,5.2276,5.2329,5.2344,5.2382,5.2427,5.2463,5.2487,5.2539,5.2553,5.2591,5.2642,5.267,5.2733,5.2746,5.281,5.2812,5.2796,5.2798,5.2829,5.2826,5.2924,5.2938,5.2865,5.2866,5.2866,0,5.2216,5.2253,5.2312,5.2341,5.2369,5.2415,5.2447,5.2475,5.2507,5.2561,5.259,5.2642,5.2685,5.2766,5.2799,5.2848,5.2852,5.2883,5.2859,5.2853,5.2854,5.2851,5.2856,5.2886,5.2887,5.2888,5.2888,0,5.2275,5.229,5.2336,5.2388,5.2426,5.2468,5.2509,5.2532,5.2567,5.2603,5.2656,5.269,5.2756,5.2808,5.286,5.2886,5.2894,5.2896,5.2906,5.2901,5.2891,5.2898,5.2808,5.2893,5.2893,5.2892,5.2892,5.2892,5.2314,5.2349,5.2397,5.2448,5.2483,5.2522,5.2559,5.2589,5.2635,5.2692,5.2706,5.2762,5.2807,5.2878,5.2906,5.2951,5.2945,5.2959,5.2963,5.2966,5.2968,5.2884,5.296,5.296,5.296,5.296,5.2959,0,5.2376,5.2408,5.2455,5.2514,5.2555,5.256,5.2607,5.264,5.269,5.2732,5.2775,5.2837,5.2888,5.2927,5.2979,5.3007,5.3012,5.302,5.3019,5.3025,5.297,5.2956,5.3016,5.3016,5.3016,5.3016,5.3016,5.3016,5.2413,5.2473,5.2494,5.2572,5.2603,5.266,5.2687,5.2723,5.2757,5.2827,5.287,5.2896,5.2936,5.2992,5.304,5.305,5.3069,5.3077,5.3087,5.3035,5.3028,5.3023,5.301,5.308,5.308,5.3139,5.3139,5.314]}]]